Weather History for Kelso-Longview, WA

Change the Weather History Date:

Thursday, September 5, 2013

  Actual Average Record
Temperature  
Mean Temperature 64 °F -  
Max Temperature 69 °F 72 °F 87 °F (2003)
Min Temperature 60 °F 49 °F 42 °F (2002)
Growing Degree Days 14 (Base 50)    
Moisture  
Dew Point 54 °F    
Average Humidity 70    
Maximum Humidity 94    
Minimum Humidity 39    
Precipitation  
Precipitation 0.66 in - - ()
Sea Level Pressure  
Sea Level Pressure 30.03 in    
Wind  
Wind Speed 4 mph (NNW)    
Max Wind Speed 13 mph    
Max Gust Speed 18 mph    
Visibility 10 miles    
Events Thunderstorm    
Averages and records for this station are not official NWS values.
T = Trace of Precipitation, MM = Missing Value Source: NWS Daily Summary

Daily Weather History Graph

Daily Weather History Graph

Search for Another Location

Airport:

Trip Planner

Search our weather history database for the weather conditions in past years. The results will help you decide how hot, cold, wet, or windy it might be!

Date:

Astronomy

Sep. 05, 2013 Rise Set
Actual Time 6:37 AM PDT 7:41 PM PDT
Civil Twilight 6:06 AM PDT 8:12 PM PDT
Nautical Twilight 5:30 AM PDT 8:48 PM PDT
Astronomical Twilight 4:51 AM PDT 9:27 PM PDT
Moon 6:58 AM PDT (9/5) 7:30 PM PDT (9/5)
Length of Visible Light 14h 05m
Length of Day
13h 04m
New Moon, 0% of the Moon is Illuminated
Sep 5
New Moon
Sep 12
First Quarter
Sep 19
Full
Sep 26
Last Quarter
Oct 4
New

Hourly Weather History & Observations

Time (PDT) Temp. Dew Point Humidity Pressure Visibility Wind Dir Wind Speed Gust Speed Precip Events Conditions
12:15 AM 62.6 °F 57.2 °F 82% 30.06 in 10.0 mi NW 3.5 mph - N/A   Overcast
12:35 AM 62.6 °F 57.2 °F 82% 30.05 in 10.0 mi Calm Calm - N/A   Overcast
12:55 AM 62.6 °F 57.2 °F 82% 30.06 in 10.0 mi Calm Calm - N/A Thunderstorm Overcast
1:15 AM 62.6 °F 57.2 °F 82% 30.05 in 10.0 mi NNW 4.6 mph - N/A   Overcast
1:35 AM 62.6 °F 57.2 °F 82% 30.09 in 10.0 mi SSW 4.6 mph - N/A Thunderstorm Overcast
1:55 AM 62.6 °F 46.4 °F 55% 30.06 in 10.0 mi North 4.6 mph - N/A Thunderstorm Overcast
2:15 AM 62.6 °F 37.4 °F 39% 30.07 in 10.0 mi Calm Calm - 0.03 in   Overcast
2:35 AM 62.6 °F 37.4 °F 39% 30.04 in 10.0 mi North 3.5 mph - 0.04 in   Overcast
2:55 AM 62.6 °F 37.4 °F 39% 30.03 in 10.0 mi NNE 5.8 mph - 0.04 in   Overcast
3:15 AM 60.8 °F 37.4 °F 42% 30.01 in 9.0 mi WNW 4.6 mph - 0.01 in   Mostly Cloudy
3:35 AM 60.8 °F 37.4 °F 42% 30.03 in 10.0 mi Calm Calm - 0.01 in   Mostly Cloudy
3:55 AM 60.8 °F 37.4 °F 42% 30.03 in 10.0 mi Calm Calm - 0.01 in   Overcast
4:15 AM 60.8 °F 37.4 °F 42% 30.04 in 10.0 mi WNW 3.5 mph - N/A   Overcast
4:35 AM 62.6 °F 37.4 °F 39% 30.03 in 10.0 mi NNW 4.6 mph - N/A   Overcast
4:55 AM 62.6 °F 37.4 °F 39% 30.03 in 10.0 mi NNW 3.5 mph - N/A   Overcast
5:15 AM 62.6 °F 37.4 °F 39% 30.04 in 10.0 mi NNE 5.8 mph - N/A   Overcast
5:35 AM 62.6 °F 37.4 °F 39% 30.05 in 10.0 mi Calm Calm - N/A   Overcast
5:55 AM 62.6 °F 37.4 °F 39% 30.03 in 10.0 mi Calm Calm - N/A   Overcast
6:15 AM 60.8 °F 37.4 °F 42% 30.03 in 10.0 mi Calm Calm - N/A   Overcast
6:35 AM 60.8 °F 37.4 °F 42% 30.03 in 10.0 mi NNW 3.5 mph - N/A   Overcast
6:55 AM 60.8 °F 57.2 °F 88% 30.03 in 10.0 mi Calm Calm - N/A   Overcast
7:15 AM 62.6 °F 57.2 °F 82% 30.04 in 10.0 mi Calm Calm - N/A   Overcast
7:35 AM 62.6 °F 57.2 °F 82% 30.04 in 10.0 mi North 6.9 mph - N/A   Overcast
7:55 AM 62.6 °F 57.2 °F 82% 30.04 in 10.0 mi NNW 3.5 mph - N/A   Overcast
8:15 AM 62.6 °F 57.2 °F 82% 30.04 in 10.0 mi Calm Calm - N/A   Overcast
8:35 AM 62.6 °F 57.2 °F 82% 30.04 in 10.0 mi Calm Calm - N/A   Overcast
8:55 AM 62.6 °F 57.2 °F 82% 30.04 in 10.0 mi WNW 3.5 mph - N/A   Overcast
9:15 AM 62.6 °F 57.2 °F 82% 30.05 in 10.0 mi Calm Calm - N/A   Overcast
9:35 AM 62.6 °F 57.2 °F 82% 30.05 in 10.0 mi NNW 4.6 mph - N/A   Overcast
9:55 AM 64.4 °F 57.2 °F 77% 30.04 in 10.0 mi North 6.9 mph - N/A   Overcast
10:15 AM 64.4 °F 57.2 °F 77% 30.04 in 10.0 mi NNW 6.9 mph - N/A   Overcast
10:35 AM 64.4 °F 57.2 °F 77% 30.04 in 10.0 mi NNW 6.9 mph - N/A   Overcast
10:55 AM 66.2 °F 59.0 °F 78% 30.04 in 10.0 mi NW 3.5 mph - N/A   Overcast
11:15 AM 66.2 °F 57.2 °F 73% 30.04 in 10.0 mi NNW 4.6 mph - N/A   Overcast
11:35 AM 66.2 °F 57.2 °F 73% 30.05 in 10.0 mi North 6.9 mph - N/A   Overcast
11:55 AM 66.2 °F 59.0 °F 78% 30.04 in 10.0 mi NNW 5.8 mph - N/A   Overcast
12:15 PM 68.0 °F 59.0 °F 73% 30.04 in 10.0 mi NW 6.9 mph - N/A   Overcast
12:35 PM 68.0 °F 57.2 °F 68% 30.04 in 10.0 mi NNW 6.9 mph - N/A   Overcast
12:55 PM 68.0 °F 57.2 °F 68% 30.03 in 10.0 mi NNW 4.6 mph - N/A   Overcast
1:15 PM 68.0 °F 57.2 °F 68% 30.03 in 10.0 mi North 8.1 mph - N/A   Overcast
1:35 PM 68.0 °F 57.2 °F 68% 30.03 in 10.0 mi North 9.2 mph - N/A   Overcast
1:55 PM 69.8 °F 57.2 °F 64% 30.02 in 10.0 mi North 10.4 mph - N/A   Overcast
2:15 PM 68.0 °F 57.2 °F 68% 30.02 in 10.0 mi NW 6.9 mph - N/A   Overcast
2:35 PM 68.0 °F 57.2 °F 68% 30.02 in 10.0 mi NW 6.9 mph - N/A   Overcast
2:55 PM 68.0 °F 57.2 °F 68% 30.02 in 10.0 mi NNW 8.1 mph - N/A   Overcast
3:15 PM 68.0 °F 57.2 °F 68% 30.01 in 10.0 mi North 9.2 mph - N/A   Overcast
3:35 PM 69.8 °F 57.2 °F 64% 30.01 in 10.0 mi North 6.9 mph - N/A   Overcast
3:55 PM 69.8 °F 57.2 °F 64% 30.00 in 10.0 mi North 12.7 mph 18.4 mph N/A   Overcast
4:15 PM 69.8 °F 57.2 °F 64% 29.99 in 10.0 mi North 9.2 mph 16.1 mph N/A   Overcast
4:35 PM 69.8 °F 57.2 °F 64% 29.98 in 10.0 mi North 11.5 mph - N/A   Overcast
4:55 PM 69.8 °F 57.2 °F 64% 29.98 in 10.0 mi NNW 11.5 mph - N/A   Overcast
5:15 PM 69.8 °F 57.2 °F 64% 30.00 in 10.0 mi NNW 8.1 mph - N/A   Overcast
5:35 PM 69.8 °F 57.2 °F 64% 30.00 in 10.0 mi NW 3.5 mph - N/A   Overcast
5:55 PM 68.0 °F 57.2 °F 68% 30.00 in 10.0 mi NW 5.8 mph - N/A   Overcast
6:15 PM 66.2 °F 59.0 °F 78% 30.00 in 10.0 mi Calm Calm - N/A Thunderstorm Thunderstorm
6:35 PM 66.2 °F 59.0 °F 78% 29.99 in 10.0 mi Calm Calm - N/A Thunderstorm Overcast
6:55 PM 66.2 °F 60.8 °F 83% 30.00 in 10.0 mi Calm Calm - N/A Thunderstorm Overcast
7:15 PM 66.2 °F 60.8 °F 83% 30.01 in 10.0 mi Calm Calm - N/A Thunderstorm Overcast
7:35 PM 64.4 °F 60.8 °F 88% 30.01 in 4.0 mi North 4.6 mph - 0.05 in   Overcast
7:55 PM 64.4 °F 60.8 °F 88% 30.02 in 5.0 mi Calm Calm - 0.07 in   Mostly Cloudy
8:15 PM 62.6 °F 60.8 °F 94% 30.03 in 5.0 mi Calm Calm - 0.04 in   Overcast
8:35 PM 62.6 °F 59.0 °F 88% 30.03 in 9.0 mi NNW 4.6 mph - 0.08 in Thunderstorm Overcast
8:55 PM 62.6 °F 57.2 °F 82% 30.05 in 10.0 mi NNW 3.5 mph - 0.09 in   Overcast
9:15 PM 62.6 °F 57.2 °F 82% 30.05 in 10.0 mi NNW 5.8 mph - 0.03 in   Overcast
9:35 PM 62.6 °F 57.2 °F 82% 30.06 in 5.0 mi Calm Calm - 0.08 in   Overcast
9:55 PM 62.6 °F 57.2 °F 82% 30.06 in 3.0 mi Calm Calm - 0.17 in   Overcast
10:15 PM 62.6 °F 57.2 °F 82% 30.06 in 3.0 mi SE 4.6 mph - 0.12 in   Overcast
10:35 PM 60.8 °F 57.2 °F 88% 30.05 in 10.0 mi SSE 5.8 mph - 0.18 in   Overcast
10:55 PM 60.8 °F 57.2 °F 88% 30.05 in 10.0 mi SSE 4.6 mph - 0.21 in   Overcast
11:15 PM 60.8 °F 57.2 °F 88% 30.05 in 10.0 mi SSE 4.6 mph - 0.01 in   Overcast
11:35 PM 60.8 °F 57.2 °F 88% 30.05 in 9.0 mi SE 4.6 mph - 0.04 in   Overcast
11:55 PM 60.8 °F 57.2 °F 88% 30.05 in 10.0 mi SSE 6.9 mph - 0.07 in   Overcast